Date String (YYYY-MM-DD hh:mm:ss) UTC,Instrument flags,Ambient pressure (hPa),Sample flow (lpm),Bypass flow (lpm),Sample temperature (°C),Ambient temperature (°C),ASC tube jacket temperature (°C),LED temperature (°C),Box temperature (°C),Sample RH (%),Span deviation,Mass concentration (μg/m³),Mass concentration (μg/m³),Mass concentration (μg/m³)
DateTimeUTC,F1_M11,P_M11,Q1_M11,Q2_M11,T1_M11,T2_M11,T3_M11,T4_M11,T5_M11,U1_M11,ZSPAN_M11,X0_M11,X2_M11,X1_M11
2022-05-18 13:00:00,,0827.9,4.99,0.00,30.6,29.3,00.0,39.7,32.4,21.5,0000.0,0012.85,0003.75,0002.14
2022-05-18 13:01:00,,0827.9,5.00,0.00,30.6,29.3,00.0,39.7,32.4,21.5,0000.0,0013.16,0003.82,0002.12
2022-05-18 13:02:00,,0827.9,5.01,0.00,30.6,29.0,00.0,39.7,32.4,21.4,0000.0,0013.01,0003.86,0002.12
2022-05-18 13:03:00,,0827.9,5.00,0.00,30.6,26.6,00.0,39.6,32.3,21.5,0000.0,0014.29,0003.90,0002.12
2022-05-18 13:04:00,,0827.9,5.00,0.00,30.5,25.5,00.0,39.5,32.1,21.4,0000.0,0014.96,0003.99,0002.14
2022-05-18 13:05:00,,0827.9,5.01,0.00,30.4,25.7,00.0,39.5,31.9,21.5,0000.0,0015.75,0004.21,0002.18
2022-05-18 13:06:00,,0827.9,5.00,0.00,30.3,26.1,00.0,39.5,31.8,21.7,0000.0,0016.21,0004.26,0002.20
2022-05-18 13:07:00,,0827.9,5.00,0.00,30.2,26.6,00.0,39.4,31.8,21.8,0000.0,0016.91,0004.30,0002.20
2022-05-18 13:08:00,,0827.9,5.00,0.00,30.2,27.0,00.0,39.4,31.8,21.4,0000.0,0017.47,0004.30,0002.20
2022-05-18 13:09:00,,0828.0,5.01,0.00,30.1,27.3,00.0,39.4,31.8,20.9,0000.0,0017.98,0004.28,0002.18
2022-05-18 13:10:00,,0827.9,4.99,0.00,30.1,27.6,00.0,39.3,31.7,21.0,0000.0,0018.76,0004.27,0002.17
2022-05-18 13:11:00,,0827.9,5.00,0.00,30.1,27.8,00.0,39.3,31.7,21.2,0000.0,0017.84,0004.22,0002.15
2022-05-18 13:12:00,,0827.9,4.99,0.00,30.1,28.0,00.0,39.3,31.7,21.2,0000.0,0017.31,0004.12,0002.13
2022-05-18 13:13:00,,0827.9,5.01,0.00,30.1,28.1,00.0,39.3,31.7,21.5,0000.0,0017.39,0004.06,0002.12
2022-05-18 13:14:00,,0827.8,5.01,0.00,30.1,28.2,00.0,39.3,31.8,21.5,0000.0,0016.77,0003.97,0002.08
2022-05-18 13:15:00,,0827.8,5.00,0.00,30.1,28.3,00.0,39.2,31.8,21.2,0000.0,0015.89,0003.88,0002.03
2022-05-18 13:16:00,,0827.8,4.99,0.00,30.1,28.3,00.0,39.2,31.8,21.0,0000.0,0014.09,0003.60,0001.98
2022-05-18 13:17:00,,0827.8,5.00,0.00,30.1,28.4,00.0,39.2,31.8,21.1,0000.0,0012.68,0003.49,0001.94
2022-05-18 13:18:00,,0827.8,5.01,0.00,30.1,28.4,00.0,39.2,31.8,20.7,0000.0,0012.12,0003.43,0001.92
2022-05-18 13:19:00,,0827.9,5.01,0.00,30.1,28.5,00.0,39.2,31.8,20.3,0000.0,0012.17,0003.41,0001.90
2022-05-18 13:20:00,,0827.8,5.00,0.00,30.1,28.5,00.0,39.2,31.8,20.1,0000.0,0011.57,0003.41,0001.91
2022-05-18 13:21:00,,0827.9,5.01,0.00,30.1,28.5,00.0,39.2,31.9,20.6,0000.0,0010.22,0003.39,0001.91
2022-05-18 13:22:00,,0827.9,5.01,0.00,30.1,28.6,00.0,39.2,31.9,20.9,0000.0,0009.81,0003.38,0001.91
2022-05-18 13:23:00,,0827.9,4.99,0.00,30.1,28.6,00.0,39.2,31.9,21.1,0000.0,0009.89,0003.34,0001.90
2022-05-18 13:24:00,,0827.9,5.01,0.00,30.1,28.6,00.0,39.2,31.9,21.3,0000.0,0010.89,0003.31,0001.88
2022-05-18 13:25:00,,0827.9,5.01,0.00,30.1,28.7,00.0,39.2,31.9,21.1,0000.0,0009.88,0003.24,0001.86
2022-05-18 13:26:00,,0827.9,5.01,0.00,30.1,28.7,00.0,39.2,31.9,21.1,0000.0,0009.65,0003.24,0001.86
2022-05-18 13:27:00,,0828.0,4.98,0.00,30.1,28.7,00.0,39.2,31.9,20.4,0000.0,0009.42,0003.24,0001.86
2022-05-18 13:28:00,,0828.0,5.01,0.00,30.1,28.7,00.0,39.2,31.9,20.1,0000.0,0009.51,0003.29,0001.86
2022-05-18 13:29:00,,0827.9,5.01,0.00,30.1,28.7,00.0,39.2,31.9,20.6,0000.0,0009.43,0003.29,0001.85
2022-05-18 13:30:00,,0828.0,5.00,0.00,30.1,28.8,00.0,39.2,31.9,20.8,0000.0,0009.05,0003.26,0001.84
2022-05-18 13:31:00,,0828.0,4.99,0.00,30.1,28.8,00.0,39.2,31.9,20.9,0000.0,0009.15,0003.28,0001.82
2022-05-18 13:32:00,,0828.1,5.02,0.00,30.1,28.8,00.0,39.2,31.9,21.2,0000.0,0009.25,0003.30,0001.81
2022-05-18 13:33:00,,0828.0,5.00,0.00,30.2,28.8,00.0,39.2,32.0,22.0,0000.0,0009.94,0003.34,0001.81
2022-05-18 13:34:00,,0827.9,5.00,0.00,30.2,28.9,00.0,39.2,32.0,22.1,0000.0,0010.10,0003.38,0001.81
2022-05-18 13:35:00,,0827.9,5.00,0.00,30.2,28.9,00.0,39.2,32.0,21.7,0000.0,0008.72,0003.40,0001.83
2022-05-18 13:36:00,,0827.9,4.99,0.00,30.2,28.9,00.0,39.2,32.0,20.8,0000.0,0008.87,0003.44,0001.85
2022-05-18 13:37:00,,0827.8,4.99,0.00,30.2,28.9,00.0,39.2,32.0,20.5,0000.0,0008.89,0003.43,0001.85
2022-05-18 13:38:00,,0827.8,5.01,0.00,30.2,28.9,00.0,39.2,32.0,20.4,0000.0,0008.94,0003.43,0001.85
2022-05-18 13:39:00,,0827.8,5.00,0.00,30.2,28.9,00.0,39.2,32.0,20.5,0000.0,0009.07,0003.40,0001.85
2022-05-18 13:40:00,,0827.9,5.00,0.00,30.2,28.9,00.0,39.3,32.0,20.7,0000.0,0009.32,0003.40,0001.87
2022-05-18 13:41:00,,0827.8,4.99,0.00,30.2,28.9,00.0,39.3,32.0,20.5,0000.0,0009.15,0003.38,0001.88
2022-05-18 13:42:00,,0827.8,4.99,0.00,30.2,28.9,00.0,39.3,32.0,20.7,0000.0,0009.47,0003.38,0001.89
2022-05-18 13:43:00,,0827.9,5.00,0.00,30.2,28.9,00.0,39.3,32.0,20.7,0000.0,0009.58,0003.40,0001.90
2022-05-18 13:44:00,,0828.0,4.99,0.00,30.2,29.0,00.0,39.3,32.0,20.9,0000.0,0009.27,0003.41,0001.91
2022-05-18 13:45:00,,0827.9,5.00,0.00,30.2,29.0,00.0,39.3,32.0,22.2,0000.0,0008.95,0003.41,0001.91
2022-05-18 13:46:00,,0828.0,4.99,0.00,30.3,29.0,00.0,39.3,32.1,23.0,0000.0,0010.02,0003.49,0001.95
2022-05-18 13:47:00,,0828.0,5.00,0.00,30.3,29.0,00.0,39.3,32.1,23.3,0000.0,0010.41,0003.55,0001.98
2022-05-18 13:48:00,,0827.9,5.00,0.00,30.3,29.0,00.0,39.3,32.1,22.7,0000.0,0011.13,0003.62,0002.01
2022-05-18 13:49:00,,0827.9,5.01,0.00,30.3,29.0,00.0,39.3,32.1,22.0,0000.0,0011.51,0003.69,0002.04
2022-05-18 13:50:00,,0828.0,5.01,0.00,30.3,29.0,00.0,39.3,32.1,21.6,0000.0,0011.90,0003.73,0002.05
2022-05-18 13:51:00,,0827.9,4.99,0.00,30.3,29.0,00.0,39.3,32.1,21.6,0000.0,0011.58,0003.73,0002.06
2022-05-18 13:52:00,,0827.9,4.99,0.00,30.3,29.0,00.0,39.3,32.1,21.3,0000.0,0011.86,0003.75,0002.08
2022-05-18 13:53:00,,0827.9,5.00,0.00,30.3,29.0,00.0,39.3,32.1,21.1,0000.0,0012.16,0003.78,0002.09
2022-05-18 13:54:00,,0828.0,4.99,0.00,30.3,29.0,00.0,39.4,32.1,21.1,0000.0,0012.06,0003.78,0002.10
2022-05-18 13:55:00,,0828.4,4.99,0.00,30.3,29.0,00.0,39.4,32.1,22.5,0000.0,0011.98,0003.78,0002.12
2022-05-18 13:56:00,,0828.1,5.00,0.00,30.3,29.0,00.0,39.4,32.1,23.5,0000.0,0012.21,0003.82,0002.15
2022-05-18 13:57:00,,0828.2,5.00,0.00,30.3,29.0,00.0,39.4,32.1,23.5,0000.0,0012.64,0003.87,0002.17
2022-05-18 13:58:00,,0828.0,5.00,0.00,30.3,29.1,00.0,39.4,32.1,23.2,0000.0,0012.64,0003.88,0002.18
2022-05-18 13:59:00,,0828.3,5.01,0.00,30.3,29.1,00.0,39.4,32.1,23.1,0000.0,0012.68,0003.90,0002.18
